Temp_Advection
nan nan nan nan nan nan nan nan nan nan nan nan nan nan nan nan nan nan nan nan nan nan nan nan nan nan nan nan nan nan nan nan nan nan nan nan nan nan nan nan nan nan
nan 0 0 0 1 1 1 1 1 0 -0 0 1 1 1 -0 -0 0 -0 0 1 1 0 0 0 1 1 0 0 0 -0 -0 0 1 1 1 2 1 1 1 1 nan
nan 0 0 0 1 1 1 1 0 -0 -0 0 1 1 1 0 -1 -0 -0 0 1 1 0 0 0 1 1 1 0 0 0 -0 0 1 1 1 2 1 1 1 1 nan
nan 0 0 0 0 1 1 0 0 0 -0 -0 0 1 2 1 -1 -1 -0 0 0 1 0 0 0 1 1 1 0 0 0 0 0 0 1 1 2 2 1 1 1 nan
nan 0 0 0 0 0 0 0 0 0 0 -0 0 1 2 2 -0 -2 -1 -0 0 1 0 0 0 1 1 1 0 0 1 0 0 0 1 1 2 2 2 1 1 nan
nan 0 0 0 0 0 0 0 1 1 0 0 0 0 1 2 2 0 -1 -1 -0 0 0 0 0 1 1 1 1 0 0 0 0 0 1 2 2 2 1 2 1 nan
nan 0 0 0 0 0 0 0 1 1 1 0 0 0 0 1 2 2 0 -1 -1 -0 -0 0 0 0 1 1 1 1 1 0 0 0 1 2 2 1 1 1 1 nan
nan 0 0 0 0 0 0 0 1 1 1 0 0 0 0 1 2 2 2 -0 -1 -1 -0 -0 0 0 0 0 1 1 1 0 0 0 1 2 2 2 2 2 1 nan
nan 0 0 0 0 0 0 0 0 1 1 1 1 0 0 0 1 2 2 2 0 -1 -1 -0 -0 -0 0 0 1 1 0 0 0 1 1 1 1 2 2 1 1 nan
nan -0 -0 -0 -0 -0 -0 0 0 0 0 0 1 1 0 0 0 1 2 2 2 1 -0 -0 -0 0 0 0 1 0 0 0 1 1 1 1 2 2 2 1 0 nan
nan 0 0 -0 -0 -0 -0 0 -0 -0 0 0 0 0 0 0 0 0 1 2 2 1 0 -0 -0 0 0 0 0 0 0 0 0 1 1 1 2 2 2 1 0 nan
nan 0 0 0 -0 -0 -0 0 -0 -0 -0 0 0 0 0 0 0 0 1 1 1 1 1 0 0 0 0 0 0 0 1 0 0 0 1 1 2 2 2 2 1 nan
nan -0 0 0 0 0 0 0 0 -0 -0 -0 0 0 0 0 0 0 1 1 1 1 1 1 1 0 0 0 0 0 0 0 -0 0 0 1 2 2 1 1 1 nan
nan -0 -0 0 0 -0 -0 -0 -0 -0 -0 -0 -0 -0 -0 -0 -0 0 1 1 1 1 1 1 1 0 0 0 0 0 0 0 0 0 1 1 2 2 1 1 0 nan
nan -0 -0 -0 -0 -0 -0 -0 -0 -0 -0 -0 -0 -0 -0 -0 -0 -0 -0 0 1 2 2 2 1 1 0 0 0 0 0 0 0 1 1 1 2 1 1 0 0 nan
nan -0 -0 -0 -0 -0 -0 -0 -0 -0 -0 -0 -0 -0 -0 -0 0 -0 -0 0 1 1 2 2 2 1 1 0 1 0 0 0 0 1 1 1 2 1 0 -0 -0 nan
nan -0 -0 -0 -0 -0 -0 -0 -0 -0 -0 -0 -0 -0 -0 -0 0 0 0 0 1 1 2 2 2 1 1 1 0 0 0 0 0 1 1 2 2 1 1 0 -0 nan
nan -0 -0 -0 -0 -0 -0 -0 -0 -0 -0 -0 -0 -0 -0 -0 0 -0 -0 0 0 1 2 2 2 1 1 0 0 0 1 0 0 0 0 1 1 1 1 1 1 nan
nan -0 -0 -0 -0 -0 -0 -0 -0 -0 -0 -0 -0 -0 -0 -0 0 0 -0 -0 0 1 2 2 2 2 1 1 0 1 1 0 -0 -0 -0 -0 0 1 1 1 1 nan
nan -0 -0 -0 -0 -0 -0 -0 -0 -0 -0 -0 -0 -0 -0 -0 -0 -0 0 -0 -0 0 1 2 2 2 1 1 1 1 0 -0 -0 -1 -1 -0 0 1 1 1 1 nan
nan -0 -0 -0 -0 -0 -0 -0 -0 -0 -0 -0 -0 -0 -0 -0 -0 -0 -0 -0 0 0 1 2 2 2 1 1 1 1 0 -0 -0 -1 -1 0 0 1 1 1 1 nan
nan -0 -0 -0 -0 -0 -0 -0 -1 -0 -0 -1 -0 -0 -0 -0 -0 -0 -0 -0 -0 1 1 2 2 2 1 1 1 1 0 0 -0 -1 -1 -0 0 1 1 1 1 nan
nan -0 -0 -0 -0 -0 -0 -0 -0 -0 -1 -1 -0 -0 -0 -0 -0 -0 -0 -0 0 1 1 2 2 2 1 1 1 1 1 -0 -1 -1 -1 -0 0 1 1 1 1 nan
nan -0 -0 -0 -0 -0 -0 -0 -0 -0 -1 -1 -1 -0 -0 -0 -0 -0 -0 -0 0 1 1 1 1 1 1 1 1 1 0 -0 -0 -1 -1 -0 0 1 1 1 0 nan
nan -1 -1 -1 -1 -1 -1 -1 -1 -0 -0 -1 -1 -1 -1 -0 -0 -0 -0 -0 0 1 1 1 1 1 1 1 1 1 1 0 -0 -1 -1 -1 -0 0 1 0 0 nan
nan nan nan nan nan nan nan nan nan nan nan nan nan nan nan nan nan nan nan nan nan nan nan nan nan nan nan nan nan nan nan nan nan nan nan nan nan nan nan nan nan nan
Wind_Speed
21 22 24 27 29 32 34 36 36 37 38 38 39 39 38 35 32 30 27 25 24 23 22 22 21 21 21 21 20 20 20 20 20 20 21 22 22 22 23 24 24 26
23 24 27 29 31 32 33 33 33 33 34 34 35 37 39 38 36 33 30 28 26 25 24 24 23 22 22 22 22 21 21 21 21 21 21 22 22 23 24 24 25 26
26 27 29 30 31 31 30 30 30 30 30 31 32 34 37 39 39 36 33 30 29 27 26 26 25 24 24 23 23 23 22 22 22 22 22 22 23 24 24 25 26 27
27 27 28 29 29 29 28 28 29 29 29 30 30 31 34 37 39 38 35 33 31 29 28 28 27 26 25 24 24 24 23 23 23 22 23 23 24 25 26 26 26 27
26 26 26 27 27 27 27 27 27 27 27 28 28 29 31 34 36 38 37 34 33 32 30 29 29 28 27 25 25 25 25 25 23 23 24 24 24 25 26 27 28 28
24 24 24 23 23 23 23 23 23 23 24 24 25 27 28 30 32 35 37 35 34 33 32 31 30 29 28 27 26 26 26 26 25 24 24 25 25 24 25 27 28 28
21 20 20 19 19 20 20 20 20 20 21 21 23 25 26 28 29 32 34 35 34 33 32 31 31 30 29 27 27 27 26 26 26 25 25 25 25 25 25 25 26 26
18 18 18 19 19 18 18 17 17 18 18 20 21 23 24 26 28 29 31 34 34 33 32 31 30 30 29 28 27 27 27 26 26 26 26 26 25 26 25 25 24 24
18 18 19 19 18 17 17 16 16 17 18 19 20 21 22 24 26 27 29 31 32 32 31 30 29 29 28 28 28 27 27 26 26 27 27 26 26 26 25 24 24 24
18 19 19 19 18 17 16 16 16 17 17 19 19 20 21 22 23 25 26 27 29 30 31 30 29 29 28 28 28 28 28 27 27 27 27 26 26 26 25 24 23 23
18 19 19 19 18 17 16 16 16 16 17 17 18 19 20 21 22 23 24 25 26 27 29 29 29 29 28 28 28 28 28 28 27 27 27 26 26 26 25 24 23 24
18 20 20 20 19 18 18 18 17 17 17 16 17 18 18 19 20 21 22 23 24 25 27 29 29 29 29 28 28 28 28 27 27 27 27 27 26 25 24 23 24 24
17 20 21 22 22 21 21 20 19 19 18 17 17 18 18 18 19 19 21 22 23 24 27 29 29 29 29 28 28 28 27 26 26 27 26 27 26 24 23 23 23 24
17 20 22 23 23 23 22 22 21 20 19 19 19 19 18 19 19 19 20 21 22 24 26 28 28 28 28 27 27 26 26 26 26 26 26 27 26 24 23 23 23 24
18 20 22 23 23 22 21 21 21 21 20 20 20 20 19 19 19 20 20 21 22 24 26 27 27 27 26 26 26 25 25 25 25 26 26 26 26 24 24 25 24 24
19 20 20 21 21 20 20 20 20 20 20 20 20 20 20 19 20 20 21 22 23 24 25 26 26 26 25 25 25 25 25 26 26 26 26 27 26 25 25 25 25 24
18 19 19 19 19 20 20 19 19 19 19 20 20 20 20 20 21 21 21 22 23 24 25 25 25 24 24 24 25 25 26 26 27 27 27 27 27 26 25 25 24 24
18 18 18 19 19 19 19 19 19 20 20 21 21 21 22 22 22 22 22 22 23 24 25 25 24 24 23 24 25 25 26 27 27 28 27 27 27 26 25 25 24 24
19 19 19 19 19 19 19 19 19 20 21 22 22 22 23 23 24 23 23 23 23 24 24 24 24 24 23 24 24 25 26 27 27 27 27 26 27 27 25 25 25 25
18 18 18 18 19 19 19 20 20 21 21 22 23 23 23 24 24 24 24 23 23 24 24 24 24 23 23 23 24 25 26 26 26 26 26 26 27 27 26 26 26 26
19 18 18 19 19 20 20 21 22 22 22 23 24 24 25 24 24 25 25 24 23 24 24 24 23 23 22 23 24 25 26 26 27 26 26 26 27 27 27 27 26 27
20 20 20 20 21 21 22 23 23 24 24 25 26 26 26 25 24 24 24 24 23 24 24 24 23 22 22 23 24 25 26 27 27 27 27 27 28 28 28 27 27 27
21 22 22 23 24 24 25 25 25 26 26 27 27 27 26 25 24 24 23 23 23 23 24 24 23 22 22 23 24 25 26 27 27 28 28 28 28 28 28 27 27 27
22 23 25 26 27 27 28 28 28 27 27 27 27 27 26 25 24 24 24 24 23 23 23 23 23 23 23 24 24 25 26 27 28 28 28 28 29 29 28 27 26 26
24 25 26 27 28 29 29 29 29 28 28 28 27 27 26 25 25 24 24 24 24 23 23 23 24 24 24 24 25 25 26 27 28 28 28 29 29 30 29 27 26 25
25 26 26 27 28 28 27 28 28 28 28 27 26 26 25 24 25 24 24 24 24 24 23 23 24 24 24 24 24 25 25 26 27 28 28 29 29 29 29 27 26 25
Wind_Direction
260 261 263 265 268 270 272 274 276 278 278 277 274 271 268 268 266 263 263 264 267 269 270 273 275 278 279 278 277 278 279 282 283 281 279 279 277 272 268 266 265 264
264 265 267 269 271 273 274 277 279 280 281 282 280 275 270 267 266 264 263 263 265 267 269 271 273 276 278 279 278 277 278 281 283 282 281 280 277 273 270 267 264 265
267 269 270 272 273 275 276 277 278 280 282 284 283 280 273 268 266 266 265 263 264 267 268 270 273 275 277 278 278 278 278 280 282 283 283 281 278 274 272 269 266 264
268 270 271 273 274 276 277 277 278 280 283 284 284 283 277 270 266 266 266 265 265 266 268 270 272 273 275 276 278 279 279 279 281 283 282 281 278 274 272 270 268 265
269 271 273 273 275 276 276 277 278 279 280 282 283 283 280 275 269 266 266 266 267 267 268 269 271 272 273 275 277 278 279 279 280 281 282 281 278 275 272 269 266 265
272 274 275 277 278 278 278 279 280 280 280 281 282 282 281 279 274 268 266 266 267 268 269 269 270 271 272 273 275 277 278 279 280 280 281 282 280 277 273 268 265 264
277 280 282 284 285 284 285 286 285 285 284 282 281 281 282 281 278 272 267 266 266 268 269 270 270 270 271 272 274 275 277 278 279 280 281 282 280 278 275 272 268 265
283 288 292 293 294 293 293 294 294 294 292 289 287 285 285 284 282 279 273 268 266 267 269 271 272 272 272 272 273 275 276 277 278 280 281 280 279 279 278 275 272 268
292 297 300 301 300 299 299 301 304 305 303 301 298 295 293 291 289 286 281 275 270 268 270 272 273 274 274 274 274 274 275 276 277 278 279 280 280 279 278 275 272 269
300 304 305 304 301 298 298 300 304 306 307 308 307 305 303 301 298 293 288 282 275 270 270 272 274 275 275 275 274 273 274 275 276 278 279 280 279 277 275 272 270 269
304 306 305 301 296 291 291 294 298 301 304 307 308 308 308 307 305 301 295 288 280 273 271 272 274 275 275 275 273 273 273 274 276 278 280 280 278 275 272 270 267 267
302 303 301 297 291 287 288 291 294 296 298 302 304 305 307 307 306 304 300 294 285 277 273 272 273 274 274 274 273 272 273 274 277 279 281 280 278 275 272 269 266 265
298 299 297 294 289 287 288 289 291 293 295 297 299 301 303 305 305 303 299 295 288 281 276 274 273 273 274 275 274 274 275 276 277 279 280 279 276 274 272 271 268 266
297 295 293 290 288 288 289 290 291 293 295 297 299 300 301 302 302 300 297 293 288 283 279 277 275 275 276 276 276 276 276 276 277 277 278 278 275 271 270 270 268 266
298 293 290 290 291 292 292 293 293 294 297 299 301 302 303 303 301 299 296 292 288 284 280 278 276 276 276 277 277 276 275 275 275 276 276 276 274 271 269 269 269 268
298 294 292 292 294 296 296 296 297 298 300 301 303 305 306 307 305 302 299 295 290 286 281 278 276 275 275 276 275 274 274 274 275 276 276 276 274 271 271 271 271 271
300 298 296 295 296 298 299 300 301 302 304 306 307 310 310 310 309 307 305 301 296 291 286 281 278 275 273 274 274 274 274 275 276 277 276 276 275 273 273 273 272 270
304 302 299 298 297 298 299 301 304 305 307 309 310 311 312 312 312 312 309 305 300 295 290 285 280 276 273 272 272 273 274 275 278 279 281 281 280 277 275 274 272 270
306 302 300 298 297 298 299 300 302 303 305 306 307 310 311 312 313 313 311 307 302 297 292 286 281 276 271 271 272 273 275 277 280 284 285 285 282 279 276 274 272 272
306 302 299 297 296 297 297 298 299 300 301 303 304 306 308 309 310 310 309 306 302 297 291 284 278 274 271 271 272 273 275 277 280 282 283 282 280 279 277 275 274 274
306 303 300 298 298 297 297 298 298 299 300 301 302 303 304 305 305 305 304 302 298 293 288 282 277 272 270 270 270 272 273 275 277 279 279 279 279 278 278 276 275 275
304 303 301 300 299 299 299 299 299 299 300 300 300 301 301 301 301 300 298 295 291 287 283 279 274 270 268 267 268 270 272 273 276 278 279 280 279 278 277 276 277 278
301 300 300 299 299 298 298 299 299 299 299 299 299 299 298 298 298 296 293 289 285 281 278 275 271 267 264 264 265 267 269 272 275 278 280 280 279 278 277 277 278 280
299 298 298 297 297 297 298 298 299 299 299 298 298 297 297 297 295 292 289 286 282 279 276 272 269 266 263 262 263 265 267 270 274 277 279 280 280 279 280 280 281 281
299 298 298 297 297 297 297 298 298 298 298 298 297 297 296 295 293 290 287 285 283 280 277 273 270 267 265 264 264 265 267 270 273 276 279 280 281 281 282 282 281 279
301 300 299 299 298 298 298 299 299 298 298 298 297 297 295 293 291 290 288 287 285 282 278 274 272 270 268 267 267 268 269 271 274 277 279 281 282 283 283 282 279 278
Height
1489 1489 1488 1488 1487 1486 1485 1485 1484 1484 1483 1482 1482 1482 1483 1484 1484 1484 1484 1484 1484 1484 1484 1485 1485 1485 1484 1484 1484 1483 1482 1482 1482 1482 1482 1482 1483 1483 1483 1483 1483 1483
1485 1485 1485 1484 1484 1483 1482 1482 1481 1480 1479 1478 1478 1477 1478 1479 1479 1479 1480 1481 1480 1480 1481 1481 1481 1481 1481 1481 1481 1480 1479 1479 1479 1479 1479 1479 1479 1479 1479 1480 1480 1480
1482 1481 1481 1481 1480 1480 1479 1479 1478 1476 1476 1475 1474 1474 1474 1474 1474 1475 1476 1477 1477 1477 1477 1477 1478 1478 1478 1477 1477 1477 1477 1476 1476 1476 1476 1476 1476 1476 1476 1476 1476 1477
1478 1478 1477 1477 1477 1476 1476 1475 1474 1473 1473 1472 1471 1471 1470 1470 1470 1471 1472 1473 1473 1474 1473 1474 1474 1474 1474 1474 1474 1474 1474 1473 1473 1473 1472 1472 1472 1472 1472 1473 1473 1473
1475 1474 1474 1474 1473 1473 1472 1471 1471 1470 1469 1469 1468 1468 1467 1467 1467 1467 1469 1469 1470 1470 1470 1470 1471 1471 1471 1471 1471 1470 1470 1470 1470 1469 1469 1469 1469 1469 1469 1469 1469 1469
1471 1471 1470 1470 1469 1469 1468 1467 1467 1467 1466 1465 1465 1464 1464 1464 1464 1464 1465 1466 1466 1466 1466 1467 1467 1467 1467 1467 1468 1467 1467 1467 1466 1466 1466 1465 1465 1465 1465 1466 1465 1466
1469 1468 1467 1467 1466 1465 1465 1464 1464 1463 1462 1462 1462 1461 1461 1460 1460 1461 1461 1462 1463 1463 1463 1463 1463 1464 1464 1464 1464 1464 1464 1463 1463 1463 1462 1462 1462 1462 1462 1462 1462 1462
1466 1465 1465 1464 1463 1462 1462 1461 1460 1460 1460 1459 1459 1458 1458 1458 1457 1457 1458 1458 1459 1460 1460 1460 1460 1460 1460 1461 1461 1461 1461 1460 1460 1459 1459 1458 1458 1458 1458 1458 1458 1459
1463 1463 1462 1461 1460 1459 1459 1458 1458 1457 1457 1456 1456 1456 1455 1455 1455 1454 1455 1455 1455 1456 1456 1456 1456 1457 1457 1457 1457 1457 1457 1457 1456 1455 1455 1455 1455 1455 1455 1455 1455 1455
1461 1460 1459 1458 1458 1457 1456 1456 1456 1455 1455 1454 1454 1453 1453 1453 1453 1452 1452 1451 1452 1452 1453 1453 1453 1453 1454 1454 1454 1453 1453 1453 1453 1452 1452 1451 1451 1451 1451 1451 1451 1451
1459 1458 1457 1456 1456 1455 1455 1454 1454 1453 1453 1452 1452 1451 1451 1451 1450 1450 1449 1449 1449 1449 1449 1450 1450 1450 1450 1450 1450 1450 1449 1449 1449 1448 1448 1448 1447 1447 1447 1447 1447 1448
1457 1456 1455 1455 1454 1453 1453 1452 1452 1451 1450 1450 1450 1449 1449 1449 1448 1447 1447 1446 1446 1446 1446 1446 1446 1446 1446 1446 1446 1446 1446 1446 1445 1445 1444 1444 1443 1443 1443 1443 1444 1444
1456 1455 1454 1453 1452 1451 1451 1450 1450 1449 1448 1448 1448 1447 1447 1446 1445 1445 1444 1444 1444 1444 1443 1443 1443 1443 1443 1443 1442 1442 1442 1442 1442 1441 1440 1440 1439 1439 1439 1440 1440 1441
1454 1454 1452 1452 1450 1449 1449 1448 1447 1447 1446 1446 1445 1444 1444 1443 1443 1442 1442 1441 1441 1441 1440 1440 1440 1440 1440 1440 1440 1439 1439 1439 1438 1437 1436 1436 1435 1435 1436 1436 1437 1437
1453 1452 1451 1450 1448 1447 1446 1445 1445 1444 1443 1443 1442 1442 1441 1441 1440 1439 1439 1438 1438 1437 1437 1436 1436 1436 1436 1436 1436 1436 1435 1435 1434 1433 1433 1432 1432 1432 1432 1433 1433 1434
1450 1449 1448 1447 1446 1445 1444 1443 1442 1441 1440 1440 1439 1438 1438 1437 1437 1436 1436 1435 1434 1434 1433 1433 1433 1433 1433 1433 1432 1432 1432 1431 1430 1430 1429 1429 1429 1429 1429 1429 1430 1431
1447 1446 1445 1444 1443 1442 1441 1440 1439 1438 1437 1436 1436 1435 1435 1434 1434 1433 1433 1432 1431 1430 1430 1429 1429 1429 1429 1429 1429 1428 1428 1427 1426 1426 1425 1425 1425 1425 1426 1426 1426 1427
1443 1442 1441 1441 1440 1439 1438 1437 1436 1435 1434 1433 1432 1432 1432 1431 1431 1430 1430 1429 1428 1427 1426 1425 1426 1426 1426 1426 1425 1425 1424 1423 1423 1422 1422 1422 1422 1422 1422 1422 1422 1423
1439 1438 1438 1437 1436 1436 1435 1434 1433 1432 1431 1430 1429 1429 1428 1428 1427 1427 1426 1426 1425 1424 1423 1422 1422 1422 1422 1422 1422 1421 1421 1420 1420 1419 1419 1419 1419 1418 1419 1418 1418 1419
1436 1435 1434 1434 1433 1433 1432 1431 1430 1429 1428 1427 1426 1426 1425 1425 1424 1423 1423 1423 1422 1421 1420 1419 1419 1419 1419 1419 1419 1418 1417 1416 1416 1416 1415 1415 1415 1415 1415 1415 1415 1415
1432 1432 1431 1431 1430 1430 1429 1428 1427 1425 1424 1423 1422 1422 1421 1421 1421 1420 1419 1419 1419 1418 1417 1416 1416 1416 1416 1416 1415 1415 1414 1413 1412 1412 1411 1411 1411 1411 1411 1411 1412 1412
1429 1429 1428 1428 1427 1426 1425 1425 1424 1422 1421 1420 1419 1418 1418 1417 1417 1416 1416 1416 1415 1414 1413 1412 1412 1413 1413 1412 1412 1411 1410 1409 1408 1408 1408 1408 1408 1408 1408 1408 1408 1409
1427 1426 1425 1424 1424 1423 1422 1421 1420 1419 1418 1417 1416 1415 1414 1413 1413 1412 1412 1412 1411 1410 1410 1409 1409 1409 1409 1408 1408 1407 1406 1405 1405 1404 1404 1404 1404 1404 1404 1404 1405 1405
1424 1423 1422 1421 1420 1419 1419 1418 1417 1416 1415 1413 1412 1411 1410 1410 1409 1408 1408 1407 1407 1406 1406 1405 1405 1405 1405 1404 1404 1403 1402 1402 1401 1400 1400 1400 1400 1400 1400 1401 1401 1401
1421 1420 1419 1418 1417 1416 1415 1414 1413 1412 1411 1410 1409 1408 1407 1406 1405 1404 1404 1403 1402 1402 1402 1401 1401 1401 1401 1401 1400 1400 1399 1398 1397 1397 1396 1396 1396 1396 1396 1397 1397 1397
1417 1417 1415 1414 1414 1413 1412 1411 1409 1408 1407 1406 1405 1404 1403 1402 1401 1400 1400 1399 1398 1398 1398 1398 1397 1397 1397 1397 1396 1396 1396 1395 1394 1393 1393 1393 1393 1392 1393 1393 1393 1393